Weather in Solov'yevka

Russia / Omsk Oblast     54°28′49″N   71°17′06″E
temp.,
°C
wind,
m/s
gust,
m/s
humid.,
%
clouds,
%
prec.,
mm/h
press.,
hPa
HPBL,
m
24 june, thu
thu2400:00+9nnw5127915 0.3 1013311
03:00+8nnw41086100 0.0 1013235
06:00+8nnw510845 0.0 1013340
09:00+13n67685 0.0 1013719
12:00+16n5653100 0.2 10142016
15:00+15nnw5657100 0.1 10151069
18:00+15nnw666353 0.3 10151144
21:00+12nw4772100 0.2 1015257
25 june, fri
fri2500:00+10nw367087 0.2 1015144
03:00+11wnw486780 0.0 1014250
06:00+8nw3781100 0.0 1014189
09:00+13nw3464100 0.0 1014387
12:00+18w454837 0.0 10131606
15:00+19nw364667 0.0 10121729
18:00+17w356039 0.0 1011318
21:00+16ene227093 0.3 101223
26 june, sat
sat2600:00+13s11796 0.3 101214
03:00+11ene338910 0.0 101333
06:00+10e23902 0.0 101463
09:00+16e22725 0.0 1014421
12:00+20s115532 0.0 10141455
15:00+22sw224338 0.0 10121918
18:00+23wsw124077 0.0 10111960
21:00+20ne1255100 0.0 101111
27 june, sun
sun2700:00+16ese4562100 0.0 101066
03:00+16ese3563100 0.0 100992
06:00+13ne4788100 1.1 1009176
09:00+15ese368484 0.1 1008184
12:00+21ese335914 0.1 1008805
15:00+23e225481 0.0 10071442
18:00+23ne2256100 0.0 1006945
21:00+20ene3474100 0.0 100775
28 june, mon
mon2800:00+17se2385100 0.6 100677
03:00+16ne3592100 1.9 1006142
06:00+15nne369491 3.2 1006284
09:00+16nne578859 0.5 1008455
12:00+16nne588745 1.2 1009646
15:00+17n688077 0.1 1011571
18:00+21nne585516 0.1 10111521
21:00+17n497722 0.2 1013276